Погода в Полдневице

Россия / Костромская область     58°36′39″N   46°36′33″E
темп.,
°C
ветер,
м/с
пор.,
м/с
влажн.,
%
обл.,
%
осадки,
мм/ч
давл.,
гПа
погр.,
м
17 мая, пн
пн1700:00+14юз23873 0.0 101348
03:00+13юз27920 0.0 1015127
06:00+16зюз37800 0.0 1016280
09:00+20зюз47606 0.0 10171019
12:00+22з464995 0.0 10171544
15:00+23зсз3446100 0.0 10171641
18:00+22сз12618 0.0 101879
21:00+16ссв22755 0.0 101913
18 мая, вт
вт1800:00+13в289273 0.0 1019151
03:00+12в2895100 0.0 1020170
06:00+15в3878100 0.0 1020268
09:00+20вюв4559100 0.0 1021575
12:00+23вюв4552100 0.0 1020952
15:00+24вюв4549100 0.0 10201081
18:00+22вюв376196 0.0 1019422
21:00+17вюв31174100 0.0 1020267
19 мая, ср
ср1900:00+15юв3117889 0.1 1020246
03:00+13юв3108310 0.1 1020204
06:00+17юв310725 0.0 1019247
09:00+22ююв47525 0.0 1019657
12:00+26юв46435 0.0 10181240
15:00+26юв46405 0.0 10181535
18:00+23юв48525 0.0 1017560
21:00+17вюв311715 0.0 1017232
20 мая, чт
чт2000:00+14юв210800 0.0 1017197
03:00+13юв39840 0.0 1016177
06:00+17юв39730 0.0 1016275
09:00+23ююв48530 0.0 1015765
12:00+26ююв573718 0.0 10141896
15:00+26ююв57326 0.0 10141788
18:00+24ююв48524 0.0 1013950
21:00+18юв312720 0.0 1013312
21 мая, пт
пт2100:00+16ююв311810 0.0 1013298
03:00+14ююв2696100 0.0 1013130
06:00+17ю397998 0.0 1013463
09:00+20ююз485981 0.0 10141087
12:00+23ююз594573 0.0 10142166
15:00+23юз67407 0.0 10142250
18:00+19зюз36530 0.0 10151076
21:00+14юз297519 0.0 1017184